CROCUBE

Last updated on Wed Oct 29 2025 00:03:53 GMT+0000 (Coordinated Universal Time)

1 62394U 24247T 25301.54698023 .00032419 00000+0 10338-2 0 9996 2 62394 44.9747 108.9965 0006763 198.3377 161.7264 15.32000112 47631
UTC large
Height (km)
Speed (km/s)
/
Latitude / Longitude
Inclination (degrees)
Orbital Period (minutes)
Azimuth
Elevation
Range (km)
Doppler Factor

Next 0 passes for location: London (51.5072 / 0.1276)

Sorry there are no passes over London.